Location: Misciano
(43.5000°N, 11.9500°E)
Time: 20:12:30
(UTC+00:00)

Cosmos 2227 Rocket - Pass Details

Date: 13 August 2020
Orbit: 840 x 844 km, 71.0° (Epoch: 22 September)

Event Time Altitude Azimuth Distance (km) Brightness Sun altitude
Exits shadow 23:51:10 59° 10° (N) 971 2.6 -31.7°
Drops below altitude 10° 23:55:45 10° 23° (NNE) 2,471 5.5 -31.5°
Sets 23:58:12 0° 25° (NNE) 3,409 6.4 -31.5°
